Terminal Aerodrome Forecast
Issued by NWS

Home | Current Version | Previous Version | Graphics & Text | Print | Product List | Glossary On
Versions: 1 2 3 4 5 6 7 8 9 10 11 12 13 14 15 16 17 18 19 20
898
FTUS43 KFGF 041528 AAB
TAFBJI
TAF AMD
KBJI 041528Z 0415/0512 30011KT P6SM OVC035
      TEMPO 0415/0418 4SM -SN BKN007
     FM041800 30006KT P6SM OVC040
     FM050000 VRB03KT P6SM BKN120=

USA.gov is the U.S. government's official web portal to all federal, state and local government web resources and services.